Content
SEND FEEDBACK

Daily
Averages
Monthly
Summary
United States of America

WILMINGTON, NORTH CAROLINA


Home > North America > United States > North Carolina
Elevation: 72 feet     Latitude: 34 16N     Longitude: 077 54W

WEATHER
 
SELECT A DAY
Number of Records: 208,995;   Date Range: 1/1/95 - 8/30/14
 
SHARE

PRINT THIS DATA

[ ← Previous Day ]
WEATHER ALMANAC - MARCH 19, 2013
[ Next Day → ]
[ °C ]   °F
Weather ElementAverageHighLow
Temperature57.5 °F70 °F (4:53 pm)48 °F (11:53 pm)
Dewpoint49.1 °F55.4 °F (2:33 am)30.9 °F (10:53 pm)
Humidity77.7 %100 % (2:33 am)31 % (5:53 pm)
Barometer29.87 in29.99 in (11:53 pm)29.75 in (3:53 am)
Wind Speed8.7 mph16.1 mph (1:53 pm)
Wind Gust21.9 mph (1:30 am)
Weather ElementAverage
Visibility7.6 mi
Wind DirectionWSW (257.6 °)

Weather ElementTotal
Precipitation2.93 in
Heating Degree Days6 (Base 65)
Growing Degree Days9 (Base 50)
Averaged from 38 records on March 19, 2013
WEATHER CONDITIONS BREAKOUT
WIND DIRECTION BREAKOUT
WEATHER BY HOUR - MARCH 19, 2013
[ °C ]   °F
Local TimeTemperatureDewpointHumidityBarometerVisibilityWind DirectionWind SpeedGust SpeedPrecipitationEventsConditions
1:30 AM55.4 °F53.6 °F94 %29.86 in10.0 miNNW (330°)15.0 mph21.9 mphOvercast
1:33 AM55.4 °F53.6 °F94 %29.87 in9.0 miNorth (360°)8.1 mph21.9 mphThunderstormOvercast
1:53 AM55.9 °F54.0 °F93 %29.86 in2.5 miNorth (360°)6.9 mph0.09 inRain-ThunderstormHeavy Thunderstorms and Rain
2:16 AM55.4 °F53.6 °F94 %29.87 in1.2 miNNW (330°)9.2 mph0.36 inRain-ThunderstormHeavy Thunderstorms and Rain
2:20 AM55.4 °F53.6 °F94 %29.86 in1.5 miNNW (330°)9.2 mph0.42 inRain-ThunderstormHeavy Thunderstorms and Rain
2:27 AM55.4 °F53.6 °F94 %29.85 in2.0 miCalm0.48 inRain-ThunderstormHeavy Thunderstorms and Rain
2:33 AM55.4 °F55.4 °F100 %29.85 in3.0 miCalm0.50 inRain-ThunderstormRain
2:40 AM55.4 °F53.6 °F94 %29.84 in4.0 miCalm0.52 inRainRain
2:53 AM55.9 °F54.0 °F93 %29.82 in6.0 miEast (80°)4.6 mph0.55 inRainLight Rain
3:53 AM57.0 °F55.0 °F93 %29.75 in8.0 miESE (120°)6.9 mph0.01 inScattered Clouds
4:07 AM57.2 °F55.4 °F94 %29.75 in7.0 miCalmScattered Clouds
4:20 AM55.4 °F55.4 °F100 %29.76 in6.0 miSSE (150°)4.6 mphMostly Cloudy
4:53 AM57.0 °F55.0 °F93 %29.80 in5.0 miWest (280°)12.7 mphOvercast
5:20 AM55.4 °F55.4 °F100 %29.82 in6.0 miWest (280°)8.1 mphOvercast
5:53 AM55.9 °F54.0 °F93 %29.83 in5.0 miWest (270°)8.1 mphOvercast
6:53 AM55.0 °F53.1 °F93 %29.84 in9.0 miWNW (300°)10.4 mphOvercast
7:23 AM53.6 °F51.8 °F94 %29.85 in4.0 miWNW (300°)10.4 mphOvercast
7:53 AM53.1 °F51.1 °F93 %29.86 in7.0 miNW (310°)9.2 mphOvercast
8:03 AM53.6 °F51.8 °F94 %29.87 in7.0 miWNW (300°)10.4 mphOvercast
8:53 AM53.1 °F50.0 °F89 %29.90 in7.0 miWNW (300°)12.7 mphOvercast
9:40 AM53.6 °F50.0 °F88 %29.88 in10.0 miWNW (290°)11.5 mphOvercast
9:53 AM54.0 °F50.0 °F86 %29.88 in10.0 miWest (280°)11.5 mphMostly Cloudy
10:12 AM53.6 °F50.0 °F88 %29.88 in10.0 miWNW (290°)12.7 mphMostly Cloudy
10:37 AM55.4 °F50.0 °F82 %29.88 in10.0 miWNW (290°)10.4 mphScattered Clouds
10:53 AM55.0 °F48.9 °F80 %29.88 in10.0 miWNW (300°)13.8 mphPartly Cloudy
11:53 AM60.1 °F50.0 °F69 %29.90 in10.0 miWNW (300°)11.5 mph19.6 mphClear
12:53 PM60.1 °F50.0 °F69 %29.91 in10.0 miNW (320°)13.8 mph19.6 mphPartly Cloudy
1:53 PM64.0 °F50.0 °F60 %29.89 in10.0 miNW (320°)16.1 mphClear
2:53 PM66.0 °F50.0 °F56 %29.86 in10.0 miWest (280°)11.5 mph16.1 mphClear
3:53 PM68.0 °F46.9 °F47 %29.85 in10.0 miWNW (300°)11.5 mphClear
4:53 PM70.0 °F42.1 °F36 %29.86 in10.0 miWNW (290°)12.7 mphClear
5:53 PM70.0 °F37.9 °F31 %29.87 in10.0 miWNW (300°)11.5 mphClear
6:53 PM66.9 °F39.0 °F36 %29.90 in10.0 miWest (280°)8.1 mphClear
7:53 PM63.0 °F37.9 °F40 %29.91 in10.0 miWest (280°)5.8 mphClear
8:53 PM60.1 °F37.9 °F44 %29.94 in10.0 miWNW (290°)5.8 mphClear
9:53 PM57.0 °F34.0 °F42 %29.97 in10.0 miNW (320°)8.1 mphClear
10:53 PM55.0 °F30.9 °F40 %29.98 in10.0 miNW (320°)4.6 mphClear
11:53 PM48.0 °F39.0 °F71 %29.99 in10.0 miNNW (340°)3.5 mphClear
Hourly data recorded from KILM, located miles away from Wilmington, North Carolina







STORIES FROM OUR PARTNERS